JST292 NZQN-NZAA

Flight info

Callsign JST292
Flight time 1h 32m
Altitude 35000
Route QN Y569 LOVTA Y655 POKOM Q277 DAVEE
Aircraft A320/M-SDE3FGHIRWY/LB1

Departure

Time 2026-05-03 22:53
Airport Queenstown Airport (NZQN)

Arrival

Time 2026-05-04 00:26
Airport Auckland International Airport (NZAA)
Time Latitude Longitude Altitude Speed Heading
2026-05-03 22:34 -45.02146 168.74060 1164 ft 0 kts 206°
2026-05-03 22:47 -45.02131 168.74069 1162 ft 4 kts 200°
2026-05-03 22:47 -45.02114 168.74085 1163 ft 4 kts 229°
2026-05-03 22:47 -45.02106 168.74111 1163 ft 3 kts 295°
2026-05-03 22:48 -45.02116 168.74139 1164 ft 2 kts 296°
2026-05-03 22:48 -45.02116 168.74141 1164 ft 0 kts 296°
2026-05-03 22:50 -45.02116 168.74140 1164 ft 0 kts 296°
2026-05-03 22:50 -45.02111 168.74125 1164 ft 4 kts 296°
2026-05-03 22:50 -45.02083 168.74072 1163 ft 8 kts 323°
2026-05-03 22:51 -45.02022 168.74075 1165 ft 10 kts 21°
2026-05-03 22:51 -45.01953 168.74107 1164 ft 9 kts 354°
2026-05-03 22:51 -45.01936 168.74017 1164 ft 12 kts 277°
2026-05-03 22:51 -45.01951 168.73889 1166 ft 14 kts 257°
2026-05-03 22:52 -45.01975 168.73742 1166 ft 17 kts 256°
2026-05-03 22:52 -45.02005 168.73566 1164 ft 20 kts 256°
2026-05-03 22:52 -45.01992 168.73521 1164 ft 1 kts 71°
2026-05-03 22:52 -45.02001 168.73553 1164 ft 5 kts 105°
2026-05-03 22:53 -45.01991 168.73658 1165 ft 34 kts 78°
2026-05-03 22:53 -45.01876 168.74382 1170 ft 112 kts 77°
2026-05-03 22:53 -45.01649 168.75726 1195 ft 165 kts 77°
2026-05-03 22:53 -45.01364 168.77284 1936 ft 160 kts 64°
2026-05-03 22:54 -45.00548 168.78219 2743 ft 155 kts 13°
2026-05-03 22:54 -44.99447 168.78011 3089 ft 173 kts 331°
2026-05-03 22:54 -44.98646 168.76657 3282 ft 194 kts 290°
2026-05-03 22:54 -44.98579 168.74674 3603 ft 213 kts 263°
2026-05-03 22:55 -44.98873 168.72491 3883 ft 239 kts 258°
2026-05-03 22:55 -44.99245 168.70085 4405 ft 258 kts 261°
2026-05-03 22:55 -44.99212 168.67549 5266 ft 263 kts 285°
2026-05-03 22:55 -44.98397 168.65236 6129 ft 267 kts 310°
2026-05-03 22:56 -44.96923 168.63645 7019 ft 271 kts 336°
2026-05-03 22:56 -44.95077 168.63130 7879 ft 276 kts
2026-05-03 22:56 -44.93217 168.63873 8680 ft 284 kts 28°
2026-05-03 22:56 -44.91526 168.65383 9452 ft 290 kts 31°
2026-05-03 22:57 -44.89828 168.66945 10204 ft 294 kts 31°
2026-05-03 22:57 -44.88049 168.68576 10506 ft 316 kts 30°
2026-05-03 22:57 -44.86133 168.70318 10741 ft 339 kts 30°
2026-05-03 22:57 -44.84118 168.72143 11290 ft 348 kts 30°
2026-05-03 22:58 -44.82066 168.74000 11964 ft 352 kts 30°
2026-05-03 22:58 -44.79991 168.75872 12631 ft 357 kts 30°
2026-05-03 22:58 -44.77890 168.77767 13291 ft 360 kts 30°
2026-05-03 22:58 -44.75769 168.79680 13954 ft 363 kts 30°
2026-05-03 22:59 -44.73627 168.81605 14605 ft 366 kts 30°
2026-05-03 22:59 -44.71466 168.83546 15220 ft 370 kts 30°
2026-05-03 22:59 -44.69292 168.85499 15819 ft 372 kts 30°
2026-05-03 22:59 -44.67100 168.87465 16412 ft 375 kts 30°
2026-05-03 23:00 -44.64887 168.89449 17001 ft 378 kts 30°
2026-05-03 23:00 -44.62660 168.91445 17573 ft 381 kts 30°
2026-05-03 23:00 -44.60416 168.93451 18149 ft 384 kts 30°
2026-05-03 23:00 -44.58155 168.95470 18722 ft 387 kts 30°
2026-05-03 23:01 -44.55895 168.97487 19267 ft 391 kts 30°
2026-05-03 23:01 -44.53588 168.99544 19836 ft 394 kts 30°
2026-05-03 23:01 -44.51260 169.01618 20372 ft 398 kts 30°
2026-05-03 23:01 -44.48883 169.03734 20907 ft 402 kts 30°
2026-05-03 23:02 -44.46517 169.05839 21434 ft 405 kts 30°
2026-05-03 23:02 -44.44127 169.07963 21945 ft 408 kts 30°
2026-05-03 23:02 -44.41750 169.10073 22415 ft 411 kts 30°
2026-05-03 23:02 -44.39320 169.12227 22872 ft 415 kts 29°
2026-05-03 23:03 -44.36870 169.14399 23321 ft 418 kts 29°
2026-05-03 23:03 -44.34405 169.16587 23758 ft 421 kts 29°
2026-05-03 23:03 -44.31922 169.18789 24178 ft 425 kts 29°
2026-05-03 23:03 -44.29416 169.21009 24603 ft 428 kts 29°
2026-05-03 23:04 -44.26893 169.23237 25024 ft 431 kts 29°
2026-05-03 23:04 -44.24354 169.25477 25448 ft 433 kts 29°
2026-05-03 23:04 -44.21802 169.27728 25838 ft 436 kts 30°
2026-05-03 23:04 -44.19228 169.29994 26221 ft 438 kts 30°
2026-05-03 23:05 -44.16644 169.32269 26600 ft 441 kts 30°
2026-05-03 23:05 -44.14043 169.34556 26970 ft 443 kts 30°
2026-05-03 23:05 -44.11425 169.36849 27321 ft 445 kts 30°
2026-05-03 23:05 -44.08791 169.39148 27675 ft 447 kts 30°
2026-05-03 23:06 -44.06144 169.41457 28023 ft 450 kts 30°
2026-05-03 23:06 -44.03484 169.43778 28366 ft 452 kts 30°
2026-05-03 23:06 -44.00810 169.46109 28714 ft 454 kts 30°
2026-05-03 23:06 -43.98158 169.48420 29038 ft 456 kts 30°
2026-05-03 23:07 -43.95427 169.50800 29364 ft 458 kts 30°
2026-05-03 23:07 -43.92722 169.53153 29684 ft 460 kts 30°
2026-05-03 23:07 -43.90039 169.55487 29994 ft 462 kts 30°
2026-05-03 23:07 -43.87309 169.57863 30309 ft 463 kts 30°
2026-05-03 23:08 -43.84586 169.60237 30741 ft 462 kts 30°
2026-05-03 23:08 -43.81868 169.62600 31169 ft 461 kts 30°
2026-05-03 23:08 -43.79149 169.64952 31564 ft 460 kts 30°
2026-05-03 23:08 -43.76437 169.67294 31961 ft 459 kts 30°
2026-05-03 23:09 -43.73729 169.69632 32355 ft 459 kts 30°
2026-05-03 23:09 -43.71021 169.71971 32750 ft 458 kts 30°
2026-05-03 23:09 -43.68323 169.74299 33150 ft 457 kts 30°
2026-05-03 23:09 -43.65624 169.76625 33536 ft 457 kts 30°
2026-05-03 23:10 -43.63839 169.78157 33781 ft 456 kts 30°
2026-05-03 23:10 -43.61142 169.80471 34153 ft 456 kts 30°
2026-05-03 23:10 -43.58455 169.82776 34541 ft 455 kts 30°
2026-05-03 23:10 -43.55767 169.85081 34891 ft 454 kts 30°
2026-05-03 23:11 -43.53080 169.87383 35214 ft 454 kts 30°
2026-05-03 23:11 -43.50394 169.89679 35457 ft 455 kts 30°
2026-05-03 23:11 -43.47765 169.92146 35515 ft 461 kts 37°
2026-05-03 23:12 -43.42831 169.97904 35522 ft 465 kts 39°
2026-05-03 23:12 -43.37891 170.03684 35522 ft 466 kts 39°
2026-05-03 23:13 -43.32943 170.09448 35522 ft 465 kts 39°
2026-05-03 23:13 -43.27995 170.15190 35522 ft 466 kts 39°
2026-05-03 23:14 -43.23043 170.20927 35529 ft 466 kts 39°
2026-05-03 23:14 -43.18083 170.26660 35537 ft 466 kts 39°
2026-05-03 23:15 -43.13120 170.32381 35545 ft 466 kts 39°
2026-05-03 23:15 -43.08161 170.38088 35546 ft 466 kts 39°
2026-05-03 23:16 -43.03199 170.43790 35547 ft 466 kts 39°
2026-05-03 23:16 -42.98260 170.49439 35549 ft 465 kts 39°
2026-05-03 23:17 -42.93301 170.55120 35547 ft 465 kts 40°
2026-05-03 23:17 -42.88332 170.60801 35545 ft 465 kts 39°
2026-05-03 23:18 -42.83367 170.66452 35545 ft 465 kts 39°
2026-05-03 23:18 -42.78400 170.72090 35549 ft 464 kts 39°
2026-05-03 23:19 -42.73432 170.77713 35552 ft 464 kts 39°
2026-05-03 23:19 -42.68467 170.83326 35554 ft 464 kts 39°
2026-05-03 23:20 -42.63531 170.88902 35552 ft 464 kts 39°
2026-05-03 23:20 -42.58568 170.94502 35552 ft 464 kts 39°
2026-05-03 23:21 -42.53600 171.00091 35548 ft 463 kts 39°
2026-05-03 23:21 -42.48628 171.05656 35545 ft 463 kts 39°
2026-05-03 23:22 -42.41159 171.13989 35543 ft 463 kts 39°
2026-05-03 23:22 -42.36190 171.19545 35547 ft 463 kts 39°
2026-05-03 23:23 -42.31223 171.25097 35549 ft 463 kts 39°
2026-05-03 23:23 -42.26244 171.30617 35549 ft 463 kts 39°
2026-05-03 23:24 -42.21258 171.36129 35549 ft 463 kts 39°
2026-05-03 23:24 -42.16280 171.41646 35549 ft 463 kts 39°
2026-05-03 23:25 -42.11301 171.47157 35550 ft 463 kts 39°
2026-05-03 23:25 -42.06303 171.52651 35549 ft 463 kts 39°
2026-05-03 23:26 -42.01317 171.58121 35552 ft 463 kts 39°
2026-05-03 23:26 -41.96367 171.63638 35553 ft 462 kts 41°
2026-05-03 23:27 -41.91619 171.69443 35554 ft 462 kts 43°
2026-05-03 23:27 -41.86951 171.75297 35554 ft 462 kts 43°
2026-05-03 23:28 -41.82212 171.81116 35558 ft 462 kts 42°
2026-05-03 23:28 -41.77438 171.86886 35557 ft 462 kts 42°
2026-05-03 23:29 -41.72655 171.92640 35557 ft 462 kts 42°
2026-05-03 23:29 -41.67871 171.98404 35563 ft 462 kts 42°
2026-05-03 23:30 -41.63091 172.04160 35563 ft 462 kts 42°
2026-05-03 23:30 -41.58304 172.09919 35556 ft 462 kts 42°
2026-05-03 23:31 -41.53524 172.15664 35554 ft 462 kts 42°
2026-05-03 23:31 -41.48739 172.21394 35557 ft 462 kts 42°
2026-05-03 23:32 -41.43956 172.27105 35559 ft 461 kts 42°
2026-05-03 23:32 -41.39176 172.32796 35553 ft 461 kts 42°
2026-05-03 23:33 -41.34422 172.38446 35554 ft 461 kts 42°
2026-05-03 23:33 -41.29639 172.44120 35561 ft 460 kts 42°
2026-05-03 23:34 -41.24858 172.49788 35569 ft 460 kts 42°
2026-05-03 23:34 -41.20075 172.55445 35573 ft 460 kts 42°
2026-05-03 23:35 -41.15296 172.61085 35573 ft 459 kts 42°
2026-05-03 23:35 -41.10513 172.66709 35573 ft 459 kts 41°
2026-05-03 23:36 -41.05714 172.72329 35575 ft 458 kts 42°
2026-05-03 23:36 -41.00936 172.77933 35573 ft 458 kts 42°
2026-05-03 23:37 -40.96189 172.83497 35572 ft 459 kts 42°
2026-05-03 23:37 -40.91399 172.89091 35575 ft 459 kts 41°
2026-05-03 23:38 -40.86600 172.94677 35578 ft 460 kts 41°
2026-05-03 23:38 -40.81778 173.00288 35580 ft 459 kts 41°
2026-05-03 23:39 -40.77014 173.05824 35579 ft 459 kts 41°
2026-05-03 23:39 -40.72212 173.11377 35576 ft 458 kts 41°
2026-05-03 23:40 -40.67420 173.16923 35576 ft 458 kts 42°
2026-05-03 23:40 -40.62640 173.22459 35577 ft 457 kts 41°
2026-05-03 23:41 -40.57846 173.27976 35577 ft 457 kts 41°
2026-05-03 23:41 -40.53057 173.33473 35576 ft 457 kts 41°
2026-05-03 23:42 -40.48262 173.38964 35577 ft 456 kts 41°
2026-05-03 23:42 -40.43473 173.44435 35582 ft 456 kts 41°
2026-05-03 23:43 -40.38689 173.49906 35586 ft 456 kts 41°
2026-05-03 23:43 -40.33901 173.55360 35587 ft 456 kts 41°
2026-05-03 23:44 -40.29101 173.60801 35589 ft 455 kts 41°
2026-05-03 23:44 -40.24314 173.66227 35587 ft 455 kts 41°
2026-05-03 23:45 -40.19535 173.71634 35585 ft 454 kts 41°
2026-05-03 23:45 -40.14755 173.77034 35577 ft 454 kts 41°
2026-05-03 23:46 -40.09977 173.82427 35571 ft 454 kts 41°
2026-05-03 23:46 -40.05193 173.87799 35575 ft 453 kts 41°
2026-05-03 23:47 -40.00414 173.93163 35587 ft 453 kts 41°
2026-05-03 23:47 -39.95631 173.98522 35593 ft 453 kts 41°
2026-05-03 23:48 -39.90846 174.03860 35598 ft 453 kts 41°
2026-05-03 23:48 -39.86867 174.08310 35596 ft 453 kts 41°
2026-05-03 23:49 -39.82077 174.13643 35601 ft 453 kts 41°
2026-05-03 23:49 -39.76510 174.19834 35603 ft 453 kts 41°
2026-05-03 23:50 -39.72497 174.24288 35602 ft 453 kts 41°
2026-05-03 23:50 -39.67711 174.29599 35603 ft 453 kts 41°
2026-05-03 23:51 -39.62909 174.34913 35604 ft 453 kts 41°
2026-05-03 23:51 -39.58105 174.40213 35605 ft 453 kts 41°
2026-05-03 23:52 -39.53322 174.45475 35607 ft 454 kts 40°
2026-05-03 23:52 -39.47947 174.49709 35606 ft 454 kts 21°
2026-05-03 23:53 -39.41805 174.51578 35604 ft 455 kts
2026-05-03 23:53 -39.35537 174.52774 35604 ft 455 kts
2026-05-03 23:54 -39.29270 174.53977 35601 ft 455 kts
2026-05-03 23:54 -39.23008 174.55175 35602 ft 455 kts
2026-05-03 23:55 -39.16733 174.56362 35606 ft 455 kts
2026-05-03 23:55 -39.10476 174.57548 35605 ft 455 kts
2026-05-03 23:56 -39.04205 174.58746 35605 ft 454 kts
2026-05-03 23:56 -38.97945 174.59935 35603 ft 455 kts
2026-05-03 23:57 -38.91688 174.61120 35604 ft 455 kts
2026-05-03 23:57 -38.85408 174.62313 35486 ft 462 kts
2026-05-03 23:58 -38.82201 174.62917 35243 ft 469 kts
2026-05-03 23:58 -38.78968 174.63527 34971 ft 469 kts
2026-05-03 23:58 -38.75732 174.64139 34057 ft 471 kts
2026-05-03 23:58 -38.72507 174.64749 33569 ft 463 kts
2026-05-03 23:59 -38.69336 174.65349 33004 ft 459 kts
2026-05-03 23:59 -38.66184 174.65945 32158 ft 460 kts
2026-05-03 23:59 -38.63002 174.66541 31342 ft 461 kts
2026-05-03 23:59 -38.59848 174.67129 30799 ft 455 kts
2026-05-04 00:00 -38.56734 174.67710 30216 ft 450 kts
2026-05-04 00:00 -38.53654 174.68286 29647 ft 445 kts
2026-05-04 00:00 -38.50603 174.68859 29079 ft 440 kts
2026-05-04 00:00 -38.47589 174.69426 28514 ft 436 kts
2026-05-04 00:01 -38.44607 174.69989 27972 ft 431 kts
2026-05-04 00:01 -38.41653 174.70545 27433 ft 426 kts
2026-05-04 00:01 -38.38735 174.71091 26907 ft 422 kts
2026-05-04 00:01 -38.35845 174.71626 26391 ft 417 kts
2026-05-04 00:02 -38.32999 174.72154 25887 ft 412 kts
2026-05-04 00:02 -38.30175 174.72679 25407 ft 407 kts
2026-05-04 00:02 -38.27380 174.73196 24929 ft 403 kts
2026-05-04 00:02 -38.24619 174.73706 24471 ft 399 kts
2026-05-04 00:03 -38.21879 174.74215 24018 ft 396 kts
2026-05-04 00:03 -38.19165 174.74723 23559 ft 393 kts
2026-05-04 00:03 -38.16464 174.75223 23108 ft 391 kts
2026-05-04 00:03 -38.13778 174.75719 22642 ft 389 kts
2026-05-04 00:04 -38.11143 174.76207 22182 ft 387 kts
2026-05-04 00:04 -38.08484 174.76699 21707 ft 385 kts
2026-05-04 00:04 -38.05839 174.77189 21227 ft 383 kts
2026-05-04 00:04 -38.03208 174.77674 20737 ft 380 kts
2026-05-04 00:05 -38.00596 174.78155 20241 ft 378 kts
2026-05-04 00:05 -37.98002 174.78635 19744 ft 376 kts
2026-05-04 00:05 -37.95423 174.79112 19247 ft 373 kts
2026-05-04 00:05 -37.92862 174.79586 18742 ft 370 kts
2026-05-04 00:06 -37.90322 174.80053 18242 ft 367 kts
2026-05-04 00:06 -37.87805 174.80510 17741 ft 364 kts
2026-05-04 00:06 -37.85282 174.80651 17220 ft 362 kts
2026-05-04 00:06 -37.82772 174.80678 16720 ft 359 kts
2026-05-04 00:07 -37.80280 174.80710 16210 ft 357 kts
2026-05-04 00:07 -37.77807 174.80743 15714 ft 354 kts
2026-05-04 00:07 -37.75349 174.80779 15210 ft 352 kts
2026-05-04 00:07 -37.72907 174.80813 14712 ft 350 kts
2026-05-04 00:08 -37.70476 174.80844 14207 ft 348 kts
2026-05-04 00:08 -37.68059 174.80874 13709 ft 346 kts
2026-05-04 00:08 -37.65655 174.80902 13172 ft 345 kts
2026-05-04 00:08 -37.63220 174.80930 12269 ft 355 kts
2026-05-04 00:09 -37.60760 174.80959 11646 ft 349 kts
2026-05-04 00:09 -37.58379 174.80854 11172 ft 337 kts 354°
2026-05-04 00:09 -37.56103 174.80339 10703 ft 327 kts 351°
2026-05-04 00:09 -37.53900 174.79815 10337 ft 315 kts 351°
2026-05-04 00:10 -37.51800 174.79312 10042 ft 302 kts 351°
2026-05-04 00:10 -37.49765 174.78824 9765 ft 293 kts 351°
2026-05-04 00:10 -37.47748 174.78343 9646 ft 296 kts 351°
2026-05-04 00:10 -37.45746 174.77869 9502 ft 289 kts 351°
2026-05-04 00:11 -37.43775 174.77404 9149 ft 289 kts 351°
2026-05-04 00:11 -37.41812 174.76942 8803 ft 288 kts 351°
2026-05-04 00:11 -37.39842 174.76481 8518 ft 285 kts 351°
2026-05-04 00:11 -37.37902 174.76026 8215 ft 283 kts 351°
2026-05-04 00:12 -37.35973 174.75575 7914 ft 281 kts 351°
2026-05-04 00:12 -37.34056 174.75125 7598 ft 280 kts 351°
2026-05-04 00:12 -37.32148 174.74675 7290 ft 277 kts 351°
2026-05-04 00:12 -37.30261 174.74232 6817 ft 275 kts 351°
2026-05-04 00:13 -37.28412 174.73797 6356 ft 272 kts 351°
2026-05-04 00:13 -37.26537 174.73354 5900 ft 269 kts 350°
2026-05-04 00:13 -37.24703 174.72924 5435 ft 267 kts 351°
2026-05-04 00:13 -37.22875 174.72498 4901 ft 267 kts 351°
2026-05-04 00:14 -37.21090 174.72081 4687 ft 254 kts 351°
2026-05-04 00:14 -37.19402 174.71673 4460 ft 242 kts 350°
2026-05-04 00:14 -37.17789 174.71241 4118 ft 238 kts 349°
2026-05-04 00:14 -37.16196 174.70794 3793 ft 231 kts 349°
2026-05-04 00:15 -37.14654 174.70354 3479 ft 224 kts 349°
2026-05-04 00:15 -37.13152 174.69926 3186 ft 218 kts 349°
2026-05-04 00:15 -37.11690 174.69513 2892 ft 213 kts 349°
2026-05-04 00:15 -37.10260 174.69114 2590 ft 208 kts 349°
2026-05-04 00:16 -37.08855 174.68724 2312 ft 204 kts 348°
2026-05-04 00:16 -37.07486 174.68342 2032 ft 199 kts 348°
2026-05-04 00:16 -37.06133 174.68218 1774 ft 191 kts
2026-05-04 00:16 -37.04892 174.68710 1556 ft 186 kts 31°
2026-05-04 00:17 -37.03895 174.69720 1326 ft 184 kts 51°
2026-05-04 00:17 -37.03265 174.71090 1077 ft 182 kts 71°
2026-05-04 00:17 -37.02865 174.72591 819 ft 182 kts 72°
2026-05-04 00:17 -37.02456 174.74088 572 ft 182 kts 72°
2026-05-04 00:18 -37.02063 174.75517 323 ft 169 kts 72°
2026-05-04 00:18 -37.01663 174.76955 720 ft 185 kts 71°
2026-05-04 00:18 -37.01215 174.78570 1418 ft 205 kts 71°
2026-05-04 00:18 -37.00739 174.80278 2197 ft 209 kts 71°
2026-05-04 00:19 -37.00248 174.82016 2830 ft 215 kts 72°
2026-05-04 00:19 -36.99740 174.83780 2980 ft 214 kts 71°
2026-05-04 00:19 -36.99329 174.85541 2999 ft 209 kts 88°
2026-05-04 00:19 -36.99641 174.87276 3007 ft 207 kts 118°
2026-05-04 00:20 -37.00628 174.88579 3007 ft 211 kts 149°
2026-05-04 00:20 -37.02043 174.89059 3006 ft 215 kts 180°
2026-05-04 00:20 -37.03468 174.88528 3008 ft 218 kts 213°
2026-05-04 00:20 -37.04470 174.87125 3017 ft 218 kts 240°
2026-05-04 00:21 -37.05211 174.85455 3004 ft 219 kts 241°
2026-05-04 00:21 -37.05949 174.83787 3012 ft 219 kts 241°
2026-05-04 00:21 -37.06690 174.82115 3005 ft 219 kts 241°
2026-05-04 00:21 -37.07430 174.80443 3008 ft 219 kts 241°
2026-05-04 00:22 -37.08161 174.78796 3005 ft 219 kts 241°
2026-05-04 00:22 -37.08905 174.77126 3010 ft 219 kts 240°
2026-05-04 00:22 -37.09648 174.75461 3007 ft 219 kts 240°
2026-05-04 00:22 -37.10390 174.73796 3007 ft 219 kts 241°
2026-05-04 00:23 -37.10869 174.72010 2998 ft 218 kts 269°
2026-05-04 00:23 -37.10509 174.70202 3010 ft 216 kts 304°
2026-05-04 00:23 -37.09429 174.68956 3008 ft 209 kts 337°
2026-05-04 00:23 -37.08093 174.68493 3013 ft 191 kts 349°
2026-05-04 00:24 -37.06837 174.68181 2905 ft 180 kts 357°
2026-05-04 00:24 -37.05678 174.68681 2517 ft 179 kts 43°
2026-05-04 00:24 -37.04780 174.69667 2350 ft 166 kts 41°
2026-05-04 00:24 -37.03918 174.70658 1822 ft 175 kts 46°
2026-05-04 00:25 -37.03151 174.71899 1142 ft 187 kts 65°
2026-05-04 00:25 -37.02643 174.73415 698 ft 185 kts 69°
2026-05-04 00:25 -37.02217 174.74885 432 ft 172 kts 71°
2026-05-04 00:25 -37.01853 174.76207 222 ft 150 kts 72°
2026-05-04 00:26 -37.01538 174.77412 33 ft 140 kts 72°
2026-05-04 00:26 -37.01268 174.78385 29 ft 94 kts 70°
2026-05-04 00:26 -37.01114 174.78954 27 ft 45 kts 72°
2026-05-04 00:26 -37.01046 174.79216 25 ft 30 kts 72°
2026-05-04 00:27 -37.00976 174.79471 26 ft 32 kts 64°
2026-05-04 00:27 -37.00828 174.79679 28 ft 27 kts 37°
2026-05-04 00:27 -37.00718 174.79722 25 ft 11 kts 316°
2026-05-04 00:27 -37.00658 174.79656 26 ft 12 kts 314°
2026-05-04 00:28 -37.00672 174.79581 27 ft 9 kts 257°
2026-05-04 00:28 -37.00681 174.79521 25 ft 12 kts 260°
2026-05-04 00:28 -37.00701 174.79411 25 ft 15 kts 254°
2026-05-04 00:28 -37.00740 174.79278 25 ft 18 kts 250°
2026-05-04 00:29 -37.00787 174.79121 25 ft 21 kts 249°
2026-05-04 00:29 -37.00840 174.78942 27 ft 18 kts 246°
2026-05-04 00:29 -37.00811 174.78856 28 ft 13 kts 324°
2026-05-04 00:29 -37.00738 174.78844 26 ft 8 kts 38°
2026-05-04 00:30 -37.00727 174.78868 25 ft 1 kts 73°
2026-05-04 00:30 -37.00727 174.78871 27 ft 0 kts 73°
2026-05-04 00:30 -37.00728 174.78867 25 ft 0 kts 73°
2026-05-04 00:31 -37.00727 174.78869 25 ft 0 kts 73°